Weather Roundup
Issued by NWS

Home | Current Version | Previous Version | Text Only | Print | Product List | Glossary On
Versions: 1 2 3 4 5 6 7 8 9 10 11 12 13 14 15 16 17 18 19 20 21 22 23 24 25 26 27 28 29 30 31 32 33 34 35 36 37 38 39 40 41 42 43 44 45 46 47 48 49 50
000
NZUS93 KARX 180559
HRRWXR

CURRENT HOURLY OBSERVATIONS ACROSS
MUCH OF THE UPPER MISSISSIPPI VALLEY
NATIONAL WEATHER SERVICE LA CROSSE WI
100 AM CDT SAT APR 18 2015


...SOUTHEAST MINNESOTA...


CITY           SKY/WX    TMP DP  RH WIND       PRES   REMARKS
ROCHESTER      FAIR      56  37  49 NE5       30.07R
ROCHESTER/MAYO FAIR      60  39  44 CALM      30.05S
WINONA         FAIR      54  45  71 CALM      30.04R
AUSTIN         FAIR      52  45  76 NE3       30.05R
ALBERT LEA     FAIR      54  41  62 CALM      30.05S
DODGE CENTER   FAIR      57  36  44 NE3       30.06R
PRESTON        FAIR      59  40  50 N3        30.05S
OWATONNA       FAIR      48  36  61 CALM      30.05R
FARIBAULT      FAIR      46  37  71 CALM      30.06R
$$

...ELSEWHERE IN MINNESOTA...


CITY           SKY/WX    TMP DP  RH WIND       PRES   REMARKS
MINNEAPOLIS    FAIR      57  31  37 SW3       30.04S
INTNL FALLS    FAIR      39  30  70 E3        30.19R
DULUTH         FAIR      52  27  38 N14G24    30.08R
RED WING       FAIR      46  36  66 CALM      30.03S
REDWOOD FALLS  FAIR      57  20  23 CALM      30.05S
MANKATO        FAIR      55  28  35 N3        30.05S
WORTHINGTON    FAIR      48  25  40 N7        30.07S
FAIRMONT       FAIR      54  28  37 N7        30.05S
$$

...SOUTHWEST WISCONSIN...


CITY           SKY/WX    TMP DP  RH WIND       PRES   REMARKS
LA CROSSE      FAIR      57  50  77 CALM      30.02R
PRAIRIE DU CHI FAIR      53  45  73 CALM      30.02R
BOSCOBEL       FAIR      49  44  83 CALM      30.02R
LONE ROCK      NOT AVBL
PLATTEVILLE    FAIR      63  44  50 N3        30.02S
FORT MC COY    FAIR      46  40  81 CALM      30.04R
VIROQUA        FAIR      59  43  55 N5        30.03S
WIS DELLS      FAIR      54  42  64 CALM      30.02R
$$

...ELSEWHERE IN WISCONSIN...


CITY           SKY/WX    TMP DP  RH WIND       PRES   REMARKS
MILWAUKEE      FAIR      54  42  64 S3        30.01R
MADISON        FAIR      54  45  71 CALM      30.01R
GREEN BAY      FAIR      50  44  80 W6        29.99R
EAU CLAIRE     NOT AVBL
BLACK RVR FLS  FAIR      43  40  91 CALM      30.02S
MEDFORD        FAIR      50  29  45 CALM      30.03R
WAUSAU         FAIR      52  39  61 NW5       30.01R
WIS RAPIDS     FAIR      55  37  50 N8        30.03R
MARSHFIELD     FAIR      53  36  52 N9        30.03R
RICE LAKE      FAIR      44  37  75 CALM      30.05R
$$

...NORTHEAST IOWA...


CITY           SKY/WX    TMP DP  RH WIND       PRES   REMARKS
DECORAH        FAIR      59  45  58 CALM      30.03R
MASON CITY     FAIR      53  43  68 N6        30.05R
CHARLES CITY   FAIR      57  45  62 N7        30.04R
OELWEIN        MOCLDY    61  46  59 NE7       30.02S
$$

...ELSEWHERE IN IOWA...


CITY           SKY/WX    TMP DP  RH WIND       PRES   REMARKS
DES MOINES     CLOUDY    68  52  56 E5        30.00F
IOWA CITY      FAIR      57  50  77 CALM      30.02S
FORT DODGE     MOCLDY    55  45  67 CALM      30.03S
$$

...NORTHERN ILLINOIS...


CITY           SKY/WX    TMP DP  RH WIND       PRES   REMARKS
CHICAGO-OHARE  MOCLDY    61  46  57 CALM      30.00S
CHICAGO-MIDWAY MOCLDY    65  48  54 SW6       30.01S
MOLINE         FAIR      54  47  77 CALM      30.00S
ROCKFORD       FAIR      58  49  72 CALM      30.04R
PEORIA         FAIR      67  52  58 S5        30.02R
$$

NOTE: "FAIR" INDICATES FEW OR NO CLOUDS BELOW 12,000 FEET WITH NO
SIGNIFICANT WEATHER AND/OR OBSTRUCTIONS TO VISIBILITY. WIND
SPEEDS ARE IN MILES-PER-HOUR.



USA.gov is the U.S. government's official web portal to all federal, state and local government web resources and services.